This is the latest recevied weather packets stored in our database for station/object KC4BAM. If no packets are shown the sender has not sent any weather packets the latest 10 day(s).
| Time | Temp. | Humidity | Pressure | Rain* | Wind** | Luminosity | Snow |
|---|---|---|---|---|---|---|---|
| 1778083009 | 11.67° C | 96% | 1004.8 hPa | 0 mm | - | 149 W/m² | - |
| 1778082706 | 11.11° C | 98% | 1004.9 hPa | 0 mm | - | 157 W/m² | - |
| 1778081568 | 11.11° C | 98% | 1004.8 hPa | 0 mm | - | 177 W/m² | - |
| 1778081265 | 11.11° C | 98% | 1004.6 hPa | 0 mm | - | 147 W/m² | - |
| 1778080962 | 11.11° C | 98% | 1004.5 hPa | 0 mm | - | 37 W/m² | - |
| 1778080661 | 11.11° C | 98% | 1004.2 hPa | 0 mm | - | 46 W/m² | - |
| 1778080357 | 10.56° C | 98% | 1004.2 hPa | 0 mm | - | 74 W/m² | - |
| 1778080054 | 11.11° C | 98% | 1004.3 hPa | 0 mm | - | 94 W/m² | - |
| 1778079751 | 10.56° C | 98% | 1004.1 hPa | 0 mm | - | 77 W/m² | - |
| 1778079448 | 11.11° C | 98% | 1004 hPa | 0 mm | - | 48 W/m² | - |
| 1778079144 | 10.56° C | 98% | 1003.8 hPa | 0 mm | - | 75 W/m² | - |
| 1778078842 | 10.56° C | 98% | 1003.7 hPa | 0 mm | - | 66 W/m² | - |
| 1778078539 | 10.56° C | 98% | 1003.5 hPa | 0 mm | - | 75 W/m² | - |
| 1778078236 | 10.56° C | 98% | 1003.6 hPa | 0 mm | - | 54 W/m² | - |
| 1778077934 | 10.56° C | 98% | 1003.5 hPa | 0 mm | - | 63 W/m² | - |
| 1778077632 | 10.56° C | 98% | 1003.7 hPa | 0 mm | - | 68 W/m² | - |
| 1778077330 | 10.56° C | 98% | 1003.7 hPa | 0 mm | - | 61 W/m² | - |
| 1778077028 | 10.56° C | 98% | 1003.6 hPa | 0 mm | - | 61 W/m² | - |
| 1778076726 | 10.56° C | 98% | 1003.7 hPa | 0 mm | - | 63 W/m² | - |
| 1778076423 | 10.56° C | 98% | 1003.6 hPa | 0 mm | - | 57 W/m² | - |
| 1778076120 | 10.56° C | 98% | 1003.4 hPa | 0 mm | - | 62 W/m² | - |
| 1778075817 | 10° C | 98% | 1003.2 hPa | 0 mm | - | 46 W/m² | - |
| 1778075513 | 10.56° C | 98% | 1003.5 hPa | 0 mm | - | 21 W/m² | - |
| 1778075210 | 10.56° C | 98% | 1003.5 hPa | 0 mm | - | 18 W/m² | - |
| 1778074906 | 10.56° C | 98% | 1003.3 hPa | 0 mm | - | 23 W/m² | - |
* Rain latest hour (hover to see other rain measurements)
** Current wind speed in m/s (hover to see current wind gust speed)